Fargo, ND

7:10 AM CST on November 21, 2019 (GMT -0600)
Hector International

Weather History for KFAR - October, 2019

Change the Weather History Date:

Sunday, October 20, 2019

  Actual Average Record
Temperature  
Mean Temperature 44 °F 44 °F  
Max Temperature 55 °F 54 °F 82 °F (1953)
Min Temperature 33 °F 34 °F 13 °F (1913)
Degree Days  
Heating Degree Days 21 21  
Month to date heating degree days 395 340  
Since 1 July heating degree days 610 610  
Cooling Degree Days 0 0  
Month to date cooling degree days 0 0  
Year to date cooling degree days 527 548  
Moisture  
Dew Point 37 °F    
Average Humidity 78    
Maximum Humidity 96    
Minimum Humidity 59    
Precipitation  
Precipitation 0.02 in 0.07 in 0.44 in (1949)
Month to date precipitation 3.45 1.54  
Year to date precipitation 28.15 20.14  
Snow  
Snow 0.00 in 0.00 in 1.10 in (1917)
Month to date snowfall 4.5 0.2  
Since 1 July snowfall 4.5 0.2  
Since 1 September snowfall 4.5 0.2  
Snow Depth 0.00 in    
Sea Level Pressure  
Sea Level Pressure 29.77 in    
Wind  
Wind Speed 4 mph ()    
Max Wind Speed 12 mph    
Max Gust Speed 19 mph    
Visibility 10.0 miles    
Events Rain    
T = Trace of Precipitation, MM = Missing Value Source: Averaged Metar Reports

Daily Weather History Graph

Daily Weather History Graph

Search for Another Location

Airport or City:

Astronomy

Oct. 20, 2019 Rise Set
Actual Time 7:52 AM CDT 6:31 PM CDT
Civil Twilight 7:21 AM CDT 7:02 PM CDT
Nautical Twilight 6:45 AM CDT 7:37 PM CDT
Astronomical Twilight 6:10 AM CDT 8:12 PM CDT
Moon 11:26 PM CDT (10/20) 2:36 PM CDT (10/20)
Length of Visible Light 11h 41m
Length of Day
10h 39m
Waning Gibbous, 59% of the Moon is Illuminated
Oct 20
Waning Gibbous
Oct 21
Last Quarter
Oct 27
New
Nov 4
First Quarter
Nov 12
Full

Hourly Weather History & Observations

Time (CDT) Temp. Windchill Dew Point Humidity Pressure Visibility Wind Dir Wind Speed Gust Speed Precip Events Conditions
12:53 AM 39.9 °F 35.1 °F 35.1 °F 83% 29.68 in 10.0 mi South 6.9 mph - N/A   Clear
1:53 AM 37.9 °F 32.7 °F 34.0 °F 86% 29.69 in 10.0 mi SE 6.9 mph - N/A   Clear
2:53 AM 37.0 °F 34.5 °F 33.1 °F 86% 29.70 in 10.0 mi SSE 3.5 mph - N/A   Clear
3:53 AM 34.0 °F 31.0 °F 32.0 °F 92% 29.72 in 10.0 mi SSE 3.5 mph - N/A   Clear
4:53 AM 35.1 °F - 32.0 °F 89% 29.73 in 10.0 mi Calm Calm - N/A   Clear
5:53 AM 33.1 °F 30.0 °F 30.9 °F 92% 29.75 in 10.0 mi SSE 3.5 mph - N/A   Clear
6:53 AM 33.1 °F 30.0 °F 30.9 °F 92% 29.77 in 10.0 mi ESE 3.5 mph - N/A   Clear
7:53 AM 34.0 °F 31.0 °F 32.0 °F 92% 29.78 in 10.0 mi SE 3.5 mph - N/A   Clear
8:53 AM 36.0 °F 33.3 °F 33.1 °F 89% 29.79 in 10.0 mi SSE 3.5 mph - N/A   Clear
9:53 AM 42.1 °F - 34.0 °F 73% 29.81 in 10.0 mi Calm Calm - N/A   Clear
10:53 AM 46.0 °F 44.8 °F 34.0 °F 63% 29.81 in 10.0 mi SE 3.5 mph - N/A   Clear
11:53 AM 48.9 °F - 36.0 °F 61% 29.81 in 10.0 mi Calm Calm - N/A   Clear
12:53 PM 50.0 °F - 37.9 °F 63% 29.81 in 10.0 mi ESE 4.6 mph - N/A   Clear
1:53 PM 51.1 °F - 39.0 °F 63% 29.80 in 10.0 mi Calm Calm - N/A   Clear
2:53 PM 53.1 °F - 41.0 °F 64% 29.78 in 10.0 mi ENE 5.8 mph - N/A   Clear
3:53 PM 55.0 °F - 41.0 °F 59% 29.78 in 10.0 mi ENE 4.6 mph - N/A   Overcast
4:53 PM 54.0 °F - 41.0 °F 62% 29.78 in 10.0 mi ENE 5.8 mph - N/A   Overcast
5:53 PM 51.1 °F - 43.0 °F 74% 29.80 in 10.0 mi NNE 3.5 mph - 0.00 in   Overcast
6:53 PM 48.9 °F - 46.0 °F 90% 29.80 in 10.0 mi NNW 4.6 mph - 0.00 in   Overcast
7:53 PM 51.1 °F - 43.0 °F 74% 29.80 in 10.0 mi ENE 5.8 mph - N/A   Overcast
8:53 PM 50.0 °F - 42.1 °F 74% 29.78 in 10.0 mi NNE 11.5 mph - 0.00 in   Overcast
9:53 PM 50.0 °F - 42.1 °F 74% 29.77 in 10.0 mi NNE 9.2 mph - N/A   Overcast
10:53 PM 48.0 °F - 43.0 °F 83% 29.78 in 10.0 mi SW 5.8 mph - 0.01 in Rain Light Rain
11:53 PM 48.0 °F - 43.0 °F 83% 29.79 in 10.0 mi Calm Calm - 0.00 in Rain Light Rain